User: anonymous   Login
Location: Unspecified
(0.0000°N, 0.0000°E)
Time: 08:40:07
(UTC+01:00)
Language:

Atlas Centaur 2 - Orbit

View from above orbital plane
View from above orbital plane
View from above satellite
View from above satellite

Ground track
Ground track

The orbit data is extracted from the following two-line orbital elements,

1 00694U 63047A   16343.83829169  .00000996  00000-0  11681-3 0  9996
2 00694  30.3563 131.9671 0588326 180.3165 179.7106 14.01953166655985
Epoch (UTC): 08 December 2016 20:07:08
Eccentricity: 0.0588326
inclination: 30.3563°
perigee height: 459 km
apogee height: 1314 km
right ascension of ascending node: 131.9671°
argument of perigee: 180.3165°
revolutions per day: 14.01953166
mean anomaly at epoch: 179.7106°
orbit number at epoch: 65598

The dashed part of the orbit path shows where the satellite is in the earth's shadow,  

DLR